Location: Unspecified
(48.8656°N, 0.0000°E)
Time: 18:53:28
(UTC+00:00)

Transit 2A Rocket - Pass Details

Date: 26 June 2019
Orbit: 588 x 915 km, 66.7° (Epoch: 15 July)

Event Time Altitude Azimuth Distance (km) Brightness Sun altitude
Rises 14:35:32 0° 318° (NW) 3,432 8.5 50.7°
Reaches altitude 10° 14:39:26 10° 343° (NNW) 2,426 7.7 50.1°
Maximum altitude 14:42:16 14° 14° (NNE) 2,105 7.2 49.7°
Drops below altitude 10° 14:44:59 10° 45° (NE) 2,312 7.2 49.3°
Sets 14:48:31 0° 71° (ENE) 3,155 7.8 48.7°
